Accueil
METAR-TAF:

METAR-TAF

Aéroports :

Aérodrome de Reims - Prunay

Reims, France

latitude: 49-12-31N, longitude: 004-09-24E, altitude: 95 m

Observation

Le bulletin a été fait il y a 14 minutes, à 08:00 UTC
Vent 6 kt de ouest/nord-ouest
Température 7°C
Humidité 87%
Pression 1039 hPa
Visibilité 10 km ou plus
Nuages épars à une hauteur de 1500 ft
Ciel couvert à une hauteur de 4400 ft

METAR: LFQA 050800Z AUTO 29006KT 9999 SCT015 OVC044 07/05 Q1039

Heure: 09:14 (08:14 UTC)


TAF: absent

Observations et prévisions météorologiques de plus de 4000 aéroports (messages METAR et TAF).

Les stations disponibles sont représentées par des disques jaunes et rouges sur la carte.

Passer la souris dessus pour voir le nom de la station.

Cliquer dessus pour voir les observations et prévisions météorologiques.

Pour changer de carte: cliquez sur les boutons verts avec une croix noire pour zoomer, sur le bouton vert avec un tiret pour effectuer un zoom arrière, ou sur les flèches vertes pour les cartes adjacentes.


METAR-TAF: